Meteo Giornale » Osservazioni meteo Stati Uniti (USA) » Danbury

ore: 15:53 - Osservazioni Meteo Danbury
Lat. 41° 22' N Lon. 73° 29' W Alt. 139 metri s.l.m.

molto_nuvoloso

25 °C

Molto Nuvoloso

Temp. 24 Ore

19 °C

25 °C

Sud

7.4 Km/h

Dew point 22 °C

Umidità 83 %

Visibilità  10 Km

Il sole sorge alle ore 06:20

Il sole tramonta alle ore 19:27

Data e Ora Cielo e Fenomeni T °C DP °C Um. % Pres. hPa Vis. km Vento km/h
Oggi h: 15:53 molto_nuvoloso Molto Nuvoloso 25 22 83 1015 10 S 7.4
Oggi h: 14:53 molto_nuvoloso Molto Nuvoloso 24 22 88 1015 10 N 0
Oggi h: 13:53 coperto Coperto 24 22 88 1015 10 S 14.8
Oggi h: 13:38 coperto Coperto 23 22 94 1015 10 S 11.1
Oggi h: 12:53 coperto Coperto 23 21 88 1015 10 S 7.4
Oggi h: 11:53 coperto Coperto 22 21 94 1016 10 S/SO 7.4
Oggi h: 10:53 coperto_pioggia Pioggia 21 21 100 1016 10 S/SE 7.4
Oggi h: 09:53 coperto_pioggia Pioggia 21 21 100 1016 11 N 7.4
Oggi h: 09:26 coperto_pioggia Pioggia Foschia 21 21 100 1017 5 N 0
Oggi h: 09:20 coperto_pioggia Pioggia Foschia 21 21 100 1016 2 N 5.5
Oggi h: 09:15 coperto_pioggia Pioggia Foschia 21 21 100 1017 5 N 5.5
Oggi h: 09:02 coperto_pioggia Pioggia Foschia 21 20 94 1017 3 N 5.5
Oggi h: 08:53 coperto_pioggia Pioggia Foschia 21 20 94 1017 10 N 5.5
Oggi h: 07:53 coperto Coperto 21 20 94 1016 13 N 5.5
Oggi h: 07:42 coperto_pioggia Pioggia Foschia 20 20 100 1017 10 SO 7.4
Oggi h: 07:30 coperto_pioggia Pioggia Foschia 20 19 93 1016 10 SO 7.4
Oggi h: 06:53 coperto Coperto 20 19 93 1017 13 N 0
Oggi h: 05:53 coperto Coperto 20 19 93 1016 10 N 5.5
Oggi h: 05:29 coperto Coperto 19 19 100 1016 10 N 0
Oggi h: 04:53 coperto Coperto 20 19 93 1016 13 N 0
Oggi h: 03:53 coperto_pioggia Pioggia Foschia 20 19 93 1017 10 N 0
Oggi h: 02:53 coperto_pioggia Pioggia Foschia 19 19 100 1017 6 N 0
Oggi h: 02:46 coperto_pioggia Pioggia Foschia 19 19 100 1017 8 N 0
Oggi h: 02:39 coperto_pioggia Pioggia Foschia 19 19 100 1017 8 N 0
Oggi h: 02:29 coperto_pioggia Pioggia Foschia 19 19 100 1017 3 N 5.5
Oggi h: 02:14 coperto_pioggia Pioggia Foschia 19 19 100 1018 5 N 0
Oggi h: 02:07 coperto_pioggia Pioggia Foschia 19 19 100 1018 2 N 0
Oggi h: 02:00 coperto_pioggia Pioggia Foschia 19 19 100 1018 5 N 0
Oggi h: 01:53 coperto_pioggia Pioggia Foschia 20 19 93 1018 5 N 0
Oggi h: 01:05 coperto_pioggia Pioggia 20 19 93 1018 11 N 0
Oggi h: 00:53 coperto_pioggia Pioggia 20 19 93 1018 10 N 0
Ieri h: 23:53 coperto Coperto 20 19 93 1018 10 N 0
Ieri h: 23:40 coperto Coperto 21 19 88 1018 10 N 0
Ieri h: 23:25 coperto_pioggia Pioggia 21 19 88 1018 10 N 5.5
Ieri h: 22:53 coperto Coperto 20 19 93 1019 10 N 0
Ieri h: 21:53 coperto Coperto 20 19 93 1019 10 N 0
Ieri h: 20:53 coperto Coperto 20 19 93 1019 10 N 0
Ieri h: 20:40 coperto Coperto 20 19 93 1019 10 S/SE 7.4
Ieri h: 20:26 coperto Coperto 20 19 93 1019 10 N 5.5
Ieri h: 19:53 coperto Coperto 20 19 93 1019 10 SE 9.3
Ieri h: 19:02 coperto_pioggia Pioggia Foschia 21 19 88 1019 6 N 0
Ieri h: 18:53 coperto_pioggia Pioggia Foschia 21 19 88 1019 3 SO 9.3
Ieri h: 18:49 coperto_pioggia Pioggia Foschia 21 18 82 1019 3 O/SO 11.1
Ieri h: 17:53 coperto Coperto 22 18 78 1019 10 N 5.5
Ieri h: 16:53 coperto Coperto 23 17 68 1019 10 S/SE 7.4